Lid_Strength_Index
7 6 7 7 7 7 6 8 7 8 7 6 6 7 8 9 9 9 9 8 8 7 6 6 6 6 7 7 8 8 8 8 9 8 7 7 7 7 6 4 3 3 2
6 7 8 7 7 7 7 7 7 7 7 7 7 8 8 8 8 7 7 7 7 6 6 6 6 5 7 7 8 8 8 8 8 8 7 7 7 7 6 6 5 4 4
6 7 7 7 7 7 7 7 7 7 7 7 8 8 7 7 7 8 8 7 7 6 6 6 6 6 6 7 7 8 7 6 6 7 8 6 7 7 7 6 6 6 4
7 8 8 8 8 7 7 8 8 7 7 7 7 7 7 7 8 8 7 8 8 7 6 6 6 6 6 5 5 5 5 6 6 6 6 6 6 5 6 7 6 7 6
8 8 8 8 7 8 8 7 7 7 6 6 6 7 7 7 7 8 8 8 8 8 7 6 6 4 3 4 5 6 6 6 6 7 7 6 6 6 6 6 7 6 6
7 7 7 7 7 8 8 8 7 7 7 7 7 7 8 7 8 7 7 8 8 8 8 7 6 4 4 4 5 5 5 6 7 7 7 7 7 6 5 6 6 7 8
7 7 7 7 7 8 8 8 8 8 8 8 8 8 9 9 8 8 7 8 8 9 8 7 6 4 5 6 6 4 4 4 5 6 7 7 8 6 5 6 6 6 7
7 7 7 7 8 8 9 8 8 9 9 9 8 9 10 8 8 9 8 9 9 9 8 7 6 6 6 7 6 6 6 5 5 5 7 7 7 7 6 6 6 7 6
8 7 7 8 9 9 9 9 9 9 9 9 8 9 10 9 9 9 9 8 8 9 8 7 6 7 8 8 7 6 6 5 4 5 6 7 8 8 6 6 7 7 8
8 7 7 8 9 9 9 9 9 9 9 8 7 8 7 9 9 9 9 8 8 8 8 6 6 7 9 9 8 7 7 7 6 5 5 6 8 7 6 5 5 7 7
8 8 8 9 9 8 8 8 9 9 9 10 10 9 9 9 10 10 10 10 9 9 8 7 6 8 9 9 9 7 8 7 5 6 5 5 6 6 7 6 5 5 7
8 9 9 9 8 7 9 9 10 10 11 11 11 11 10 10 9 10 10 10 9 10 9 8 8 9 9 9 8 9 9 6 5 6 6 6 6 6 6 5 5 5 5
9 10 10 9 8 8 9 10 10 11 12 12 12 12 11 10 11 10 10 10 9 9 9 8 8 9 9 8 8 8 7 7 6 7 7 6 5 5 5 6 5 4 4
10 10 10 10 10 9 9 10 11 12 12 12 12 12 12 12 11 11 11 11 10 9 8 8 7 9 9 8 8 8 8 8 8 8 7 6 4 4 6 6 6 5 6
10 10 10 10 10 11 11 12 12 12 12 13 12 11 13 13 11 11 11 11 10 9 9 9 9 10 10 10 10 10 9 8 9 9 8 7 6 4 5 6 6 6 6
11 11 10 10 10 10 12 12 11 11 11 12 12 12 11 12 11 11 10 10 10 10 10 11 11 11 12 12 12 11 10 10 10 10 9 8 7 6 4 4 6 6 6
12 11 11 10 10 10 11 10 11 12 11 11 12 12 12 12 12 11 11 10 10 10 11 12 12 13 13 12 12 12 12 11 10 10 10 10 8 6 4 3 3 4 5
10 10 11 11 11 10 10 10 11 11 10 11 11 12 12 12 12 11 11 10 11 12 12 13 13 13 13 13 13 13 12 12 12 12 11 10 9 7 4 4 3 3 4
10 11 12 11 11 11 12 12 12 11 11 11 11 11 12 12 12 11 11 11 12 14 13 14 14 14 14 14 14 13 13 13 13 13 12 11 9 8 6 5 4 8 7
10 10 11 11 11 12 13 13 12 11 11 11 12 12 12 12 11 11 11 12 13 14 14 14 14 14 14 15 15 15 15 14 14 14 13 11 10 7 7 6 5 4 5
10 11 13 11 12 13 13 13 11 12 12 12 12 12 14 12 11 11 12 13 14 15 15 15 15 15 15 15 16 16 16 16 15 15 14 12 11 9 8 7 6 6 6
9 9 10 11 12 12 13 12 12 12 12 11 11 11 13 11 11 12 13 14 14 15 15 16 16 16 16 16 16 17 17 17 16 16 14 13 11 10 9 8 7 7 7
10 10 10 11 12 13 12 12 12 12 12 12 12 11 11 12 12 13 13 13 14 15 16 17 17 17 17 16 16 16 17 17 17 15 15 13 11 11 10 10 9 9 9
10 11 12 12 12 12 13 13 13 13 13 12 11 11 11 12 12 13 13 14 14 16 16 17 17 17 17 17 16 16 16 16 16 15 14 13 12 12 11 11 10 10 10
11 12 12 12 12 13 13 12 12 12 12 12 12 13 12 13 14 14 14 14 15 15 16 17 17 17 17 17 17 16 16 16 16 15 14 13 13 12 12 11 11 11 11
11 11 12 11 11 11 12 11 11 11 12 12 13 13 13 14 15 15 15 15 15 15 15 17 17 17 17 17 17 16 16 16 16 16 15 14 14 14 12 12 12 11 11